Weather History for Reno - Stead, NV

Change the Weather History Date:

Thursday, October 17, 2013

  Actual Average (KRNO) Record (KRNO)
Temperature  
Mean Temperature 44 °F 54 °F  
Max Temperature 64 °F 69 °F 87 °F (1973)
Min Temperature 24 °F 38 °F 10 °F (1893)
Degree Days  
Heating Degree Days 21 11  
Month to date heating degree days 147  
Since 1 July heating degree days 237  
Cooling Degree Days 0 0  
Month to date cooling degree days 4  
Year to date cooling degree days 838  
Moisture  
Dew Point 19 °F    
Average Humidity 40    
Maximum Humidity 74    
Minimum Humidity 16    
Precipitation  
Precipitation 0.00 in 0.02 in 0.49 in (2010)
Month to date precipitation 0.28  
Year to date precipitation 5.32  
Snow  
Snow 0.00 in 0.00 in 0.90 in (1971)
Month to date snowfall 0.1  
Since 1 July snowfall 0.2  
Since 1 September snowfall 0.2  
Snow Depth -    
Sea Level Pressure  
Sea Level Pressure 30.19 in    
Wind  
Wind Speed 5 mph (North)    
Max Wind Speed 13 mph    
Max Gust Speed 16 mph    
Visibility 10 miles    
Events      
T = Trace of Precipitation, MM = Missing Value Source: NWS Daily Summary

Daily Weather History Graph

Daily Weather History Graph

Search for Another Location

Airport:

Trip Planner

Search our weather history database for the weather conditions in past years. The results will help you decide how hot, cold, wet, or windy it might be!

Date:

Astronomy

Oct. 17, 2013 Rise Set
Actual Time 7:12 AM PDT 6:16 PM PDT
Civil Twilight 6:44 AM PDT 6:44 PM PDT
Nautical Twilight 6:13 AM PDT 7:15 PM PDT
Astronomical Twilight 5:42 AM PDT 7:46 PM PDT
Moon 5:33 PM PDT (10/17) 5:49 AM PDT (10/17)
Length of Visible Light 11h 59m
Length of Day
11h 04m
Waxing Gibbous, 98% of the Moon is Illuminated
Oct 17
Waxing Gibbous
Oct 18
Full
Oct 26
Last Quarter
Nov 3
New
Nov 9
First Quarter

Hourly Weather History & Observations

Time (PDT) Temp. Windchill Dew Point Humidity Pressure Visibility Wind Dir Wind Speed Gust Speed Precip Events Conditions
12:15 AM 39.2 °F 34.2 °F 23.0 °F 52% 30.21 in 10.0 mi North 6.9 mph - N/A   Clear
12:35 AM 35.6 °F 30.7 °F 23.0 °F 60% 30.21 in 10.0 mi North 5.8 mph - N/A   Clear
12:55 AM 37.4 °F 32.8 °F 23.0 °F 56% 30.20 in 10.0 mi NNW 5.8 mph - N/A   Clear
1:15 AM 41.0 °F 38.0 °F 24.8 °F 53% 30.20 in 10.0 mi North 4.6 mph - N/A   Clear
1:35 AM 35.6 °F 29.9 °F 21.2 °F 56% 30.20 in 10.0 mi North 6.9 mph - N/A   Clear
1:55 AM 32.0 °F 25.6 °F 19.4 °F 60% 30.20 in 10.0 mi NNW 6.9 mph - N/A   Clear
2:15 AM 37.4 °F 32.8 °F 23.0 °F 56% 30.20 in 10.0 mi North 5.8 mph - N/A   Clear
2:35 AM 37.4 °F 32.1 °F 24.8 °F 60% 30.19 in 10.0 mi North 6.9 mph - N/A   Clear
2:55 AM 35.6 °F 30.7 °F 23.0 °F 60% 30.19 in 10.0 mi NNW 5.8 mph - N/A   Clear
3:15 AM 32.0 °F 24.8 °F 23.0 °F 69% 30.19 in 10.0 mi North 8.1 mph - N/A   Clear
3:35 AM 32.0 °F 24.8 °F 21.2 °F 64% 30.20 in 10.0 mi North 8.1 mph - N/A   Clear
3:55 AM 28.4 °F 19.7 °F 19.4 °F 69% 30.19 in 10.0 mi North 9.2 mph - N/A   Clear
4:15 AM 30.2 °F 24.3 °F 19.4 °F 64% 30.19 in 10.0 mi NNW 5.8 mph - N/A   Clear
4:35 AM 30.2 °F 23.4 °F 19.4 °F 64% 30.19 in 10.0 mi North 6.9 mph - N/A   Clear
4:55 AM 30.2 °F - 19.4 °F 64% 30.19 in 10.0 mi Calm Calm - N/A   Clear
5:15 AM 28.4 °F 24.6 °F 17.6 °F 64% 30.19 in 10.0 mi North 3.5 mph - N/A   Clear
5:35 AM 28.4 °F 22.2 °F 17.6 °F 64% 30.20 in 10.0 mi NNW 5.8 mph - N/A   Clear
5:55 AM 28.4 °F 23.3 °F 19.4 °F 69% 30.20 in 10.0 mi North 4.6 mph - N/A   Clear
6:15 AM 32.0 °F - 21.2 °F 64% 30.20 in 10.0 mi Calm Calm - N/A   Clear
6:35 AM 28.4 °F 22.2 °F 17.6 °F 64% 30.20 in 10.0 mi North 5.8 mph - N/A   Clear
6:55 AM 24.8 °F 16.9 °F 17.6 °F 74% 30.20 in 10.0 mi NW 6.9 mph - N/A   Clear
7:15 AM 28.4 °F 23.3 °F 17.6 °F 64% 30.21 in 10.0 mi NW 4.6 mph - N/A   Clear
7:35 AM 26.6 °F 21.2 °F 17.6 °F 69% 30.21 in 10.0 mi WNW 4.6 mph - N/A   Clear
7:55 AM 26.6 °F 22.6 °F 17.6 °F 69% 30.21 in 10.0 mi NNW 3.5 mph - N/A   Clear
8:15 AM 33.8 °F - 21.2 °F 60% 30.22 in 10.0 mi Calm Calm - N/A   Clear
8:35 AM 37.4 °F - 23.0 °F 56% 30.23 in 10.0 mi Calm Calm - N/A   Clear
8:55 AM 39.2 °F - 23.0 °F 52% 30.23 in 10.0 mi Calm Calm - N/A   Clear
9:15 AM 41.0 °F - 23.0 °F 49% 30.23 in 10.0 mi Calm Calm - N/A   Clear
9:35 AM 46.4 °F - 23.0 °F 40% 30.23 in 10.0 mi Calm Calm - N/A   Clear
9:55 AM 46.4 °F 45.2 °F 24.8 °F 43% 30.23 in 10.0 mi South 3.5 mph - N/A   Clear
10:15 AM 48.2 °F - 24.8 °F 40% 30.22 in 10.0 mi Calm Calm - N/A   Clear
10:35 AM 50.0 °F - 24.8 °F 37% 30.22 in 10.0 mi Calm Calm - N/A   Clear
10:55 AM 53.6 °F - 23.0 °F 30% 30.22 in 10.0 mi SSW 3.5 mph - N/A   Clear
11:15 AM 55.4 °F - 23.0 °F 29% 30.21 in 10.0 mi Calm Calm - N/A   Clear
11:35 AM 57.2 °F - 21.2 °F 25% 30.21 in 10.0 mi Calm Calm - N/A   Clear
11:55 AM 59.0 °F - 21.2 °F 23% 30.20 in 10.0 mi ENE 5.8 mph - N/A   Clear
12:15 PM 59.0 °F - 19.4 °F 22% 30.19 in 10.0 mi Calm Calm - N/A   Clear
12:35 PM 60.8 °F - 17.6 °F 19% 30.19 in 10.0 mi SSW 5.8 mph - N/A   Clear
12:55 PM 62.6 °F - 17.6 °F 18% 30.18 in 10.0 mi SW 5.8 mph - N/A   Clear
1:15 PM 62.6 °F - 17.6 °F 18% 30.17 in 10.0 mi SE 5.8 mph - N/A   Clear
1:35 PM 62.6 °F - 17.6 °F 18% 30.16 in 10.0 mi WSW 4.6 mph - N/A   Clear
1:55 PM 64.4 °F - 17.6 °F 16% 30.16 in 10.0 mi SSE 6.9 mph - N/A   Clear
2:15 PM 64.4 °F - 17.6 °F 16% 30.15 in 10.0 mi SSE 4.6 mph - N/A   Clear
2:35 PM 64.4 °F - 19.4 °F 18% 30.15 in 10.0 mi ENE 8.1 mph - N/A   Clear
2:55 PM 64.4 °F - 17.6 °F 16% 30.15 in 10.0 mi SE 6.9 mph - N/A   Clear
3:15 PM 64.4 °F - 17.6 °F 16% 30.15 in 10.0 mi East 6.9 mph - N/A   Clear
3:35 PM 64.4 °F - 17.6 °F 16% 30.15 in 10.0 mi ENE 3.5 mph - N/A   Clear
3:55 PM 64.4 °F - 17.6 °F 16% 30.15 in 10.0 mi East 11.5 mph - N/A   Clear
4:15 PM 64.4 °F - 17.6 °F 16% 30.15 in 10.0 mi East 12.7 mph 16.1 mph N/A   Clear
4:35 PM 64.4 °F - 17.6 °F 16% 30.15 in 10.0 mi ENE 10.4 mph - N/A   Clear
4:55 PM 62.6 °F - 17.6 °F 18% 30.15 in 10.0 mi ENE 11.5 mph - N/A   Clear
5:15 PM 62.6 °F - 17.6 °F 18% 30.14 in 10.0 mi East 8.1 mph - N/A   Clear
5:35 PM 62.6 °F - 17.6 °F 18% 30.14 in 10.0 mi ENE 8.1 mph - N/A   Clear
5:55 PM 59.0 °F - 17.6 °F 20% 30.15 in 10.0 mi ENE 8.1 mph - N/A   Clear
6:15 PM 57.2 °F - 17.6 °F 21% 30.15 in 10.0 mi ENE 8.1 mph - N/A   Clear
6:35 PM 55.4 °F - 17.6 °F 23% 30.16 in 10.0 mi NE 6.9 mph - N/A   Clear
6:55 PM 55.4 °F - 17.6 °F 23% 30.16 in 10.0 mi NE 6.9 mph - N/A   Clear
7:15 PM 48.2 °F - 15.8 °F 27% 30.17 in 10.0 mi Calm Calm - N/A   Clear
7:35 PM 50.0 °F - 15.8 °F 26% 30.18 in 10.0 mi Calm Calm - N/A   Clear
7:55 PM 48.2 °F - 15.8 °F 27% 30.18 in 10.0 mi Calm Calm - N/A   Clear
8:15 PM 48.2 °F - 15.8 °F 27% 30.18 in 10.0 mi NW 4.6 mph - N/A   Clear
8:35 PM 44.6 °F 41.4 °F 14.0 °F 29% 30.19 in 10.0 mi North 5.8 mph - N/A   Clear
8:55 PM 44.6 °F 40.2 °F 14.0 °F 29% 30.20 in 10.0 mi North 8.1 mph - N/A   Clear
9:15 PM 44.6 °F 41.4 °F 15.8 °F 31% 30.20 in 10.0 mi North 5.8 mph - N/A   Clear
9:35 PM 42.8 °F 41.1 °F 15.8 °F 34% 30.21 in 10.0 mi WSW 3.5 mph - N/A   Clear
9:55 PM 39.2 °F - 14.0 °F 36% 30.21 in 10.0 mi Calm Calm - N/A   Clear
10:15 PM 37.4 °F 33.8 °F 14.0 °F 38% 30.21 in 10.0 mi North 4.6 mph - N/A   Clear
10:35 PM 39.2 °F 35.9 °F 14.0 °F 36% 30.21 in 10.0 mi North 4.6 mph - N/A   Clear
10:55 PM 37.4 °F - 14.0 °F 38% 30.21 in 10.0 mi Calm Calm - N/A   Clear
11:15 PM 35.6 °F 32.8 °F 14.0 °F 41% 30.22 in 10.0 mi NNW 3.5 mph - N/A   Clear
11:35 PM 33.8 °F 28.6 °F 12.2 °F 41% 30.22 in 10.0 mi NNW 5.8 mph - N/A   Clear
11:55 PM 35.6 °F 32.8 °F 14.0 °F 41% 30.22 in 10.0 mi NNE 3.5 mph - N/A   Clear